Powrót do katalogu

DELTA 1 DEB

AktywnyUNKNOWN
NORAD 10178·DEBRIS·🇺🇸 United States

Wystrzelony Jul 14, 1977 z Cape Canaveral Space Force Station

Loading…

Następne Przeloty (najbliższe 24 godziny)

TLE

ŚwieżeSource: Space-Track

Epoka: Sep 14, 2026, 06:07 UTC

1 10178U 77065G   26257.25555332 -.00000490  00000-0 -17298-2 0  9998
2 10178  28.7118 251.3839 0904668 189.4004 293.7906 12.09521869 21042

Śledź DELTA 1 DEB w czasie rzeczywistym z AllMySat

Download on the App Store